Time,TemperatureF,DewpointF,PressureIn,WindDirection,WindDirectionDegrees,WindSpeedMPH,WindSpeedGustMPH,Humidity,HourlyPrecipIn,Conditions,Clouds,dailyrainin,SoftwareType,DateUTC
2013-11-23 00:01:00,51.2,50.1,29.92,WSW,258,5.0,8.0,96,0.00,,---,0.00,VWS V14.00,2013-11-23 05:01:00,
2013-11-23 00:02:00,51.2,50.1,29.92,West,259,4.0,8.0,96,0.00,,---,0.00,VWS V14.00,2013-11-23 05:02:00,
2013-11-23 00:03:00,51.2,50.1,29.92,WSW,256,6.0,8.0,96,0.00,,---,0.00,VWS V14.00,2013-11-23 05:03:00,
2013-11-23 00:08:00,51.2,50.1,29.92,West,264,6.0,8.0,96,0.00,,---,0.00,VWS V14.00,2013-11-23 05:08:00,
2013-11-23 00:13:00,51.5,50.4,29.91,West,266,6.0,8.0,96,0.00,,---,0.00,VWS V14.00,2013-11-23 05:13:00,
2013-11-23 00:19:00,51.6,50.5,29.91,WNW,295,5.0,8.0,96,0.00,,---,0.00,VWS V14.00,2013-11-23 05:19:00,
2013-11-23 00:24:00,50.9,49.8,29.91,WNW,301,9.0,10.0,96,0.00,,---,0.00,VWS V14.00,2013-11-23 05:24:00,
2013-11-23 00:29:00,50.8,49.4,29.92,WNW,301,7.0,10.0,95,0.00,,---,0.00,VWS V14.00,2013-11-23 05:29:00,
2013-11-23 00:34:00,51.1,50.0,29.91,WNW,297,9.0,12.0,96,0.00,,---,0.00,VWS V14.00,2013-11-23 05:34:00,
2013-11-23 00:39:00,51.3,49.9,29.92,NW,304,10.0,15.0,95,0.00,,---,0.00,VWS V14.00,2013-11-23 05:39:00,
2013-11-23 00:44:00,51.3,49.9,29.92,NW,312,12.0,15.0,95,0.00,,---,0.00,VWS V14.00,2013-11-23 05:44:00,
2013-11-23 00:49:00,51.4,49.7,29.92,NW,307,11.0,15.0,94,0.00,,---,0.00,VWS V14.00,2013-11-23 05:49:00,
2013-11-23 00:54:00,51.4,49.7,29.92,NW,305,15.0,15.0,94,0.00,,---,0.00,VWS V14.00,2013-11-23 05:54:00,
2013-11-23 00:59:00,51.4,49.5,29.92,NW,312,14.0,15.0,93,0.00,,---,0.00,VWS V14.00,2013-11-23 05:59:00,
2013-11-23 01:04:00,51.5,49.5,29.92,NW,312,12.0,16.0,93,0.00,,---,0.00,VWS V14.00,2013-11-23 06:04:00,
2013-11-23 01:09:00,51.5,49.3,29.92,NW,319,13.0,16.0,92,0.00,,---,0.00,VWS V14.00,2013-11-23 06:09:00,
2013-11-23 01:14:00,51.7,49.5,29.92,NW,316,15.0,17.0,92,0.00,,---,0.00,VWS V14.00,2013-11-23 06:14:00,
2013-11-23 01:19:00,51.7,49.5,29.92,NW,324,14.0,17.0,92,0.00,,---,0.00,VWS V14.00,2013-11-23 06:19:00,
2013-11-23 01:24:00,51.7,49.5,29.92,NW,314,14.0,18.0,92,0.00,,---,0.00,VWS V14.00,2013-11-23 06:24:00,
2013-11-23 01:29:00,51.5,49.0,29.92,NW,319,13.0,18.0,91,0.00,,---,0.00,VWS V14.00,2013-11-23 06:29:00,
2013-11-23 01:34:00,51.5,49.0,29.92,NNW,334,17.0,18.0,91,0.00,,---,0.00,VWS V14.00,2013-11-23 06:34:00,
2013-11-23 01:39:00,51.4,48.6,29.93,NW,324,13.0,18.0,90,0.00,,---,0.00,VWS V14.00,2013-11-23 06:39:00,
2013-11-23 01:44:00,51.2,48.7,29.93,NW,324,15.0,18.0,91,0.00,,---,0.00,VWS V14.00,2013-11-23 06:44:00,
2013-11-23 01:50:00,51.3,48.5,29.93,NW,321,15.0,18.0,90,0.00,,---,0.00,VWS V14.00,2013-11-23 06:50:00,
2013-11-23 01:55:00,51.4,48.6,29.93,NW,322,12.0,18.0,90,0.00,,---,0.00,VWS V14.00,2013-11-23 06:55:00,
2013-11-23 02:00:00,51.0,48.2,29.93,NNW,333,14.0,15.0,90,0.00,,---,0.00,VWS V14.00,2013-11-23 07:00:00,
2013-11-23 02:05:00,51.1,48.0,29.93,NNW,328,11.0,18.0,89,0.00,,---,0.00,VWS V14.00,2013-11-23 07:05:00,
2013-11-23 02:10:00,50.9,48.1,29.93,NW,317,12.0,18.0,90,0.00,,---,0.00,VWS V14.00,2013-11-23 07:10:00,
2013-11-23 02:15:00,50.8,47.7,29.93,NW,326,17.0,18.0,89,0.00,,---,0.00,VWS V14.00,2013-11-23 07:15:00,
2013-11-23 02:20:00,50.8,47.7,29.93,NNW,328,13.0,18.0,89,0.00,,---,0.00,VWS V14.00,2013-11-23 07:20:00,
2013-11-23 02:25:00,50.6,47.2,29.93,NW,321,17.0,18.0,88,0.00,,---,0.00,VWS V14.00,2013-11-23 07:25:00,
2013-11-23 02:30:00,50.5,47.1,29.93,NNW,330,13.0,15.0,88,0.00,,---,0.00,VWS V14.00,2013-11-23 07:30:00,
2013-11-23 02:35:00,50.3,46.9,29.93,NW,326,13.0,16.0,88,0.00,,---,0.00,VWS V14.00,2013-11-23 07:35:00,
2013-11-23 02:40:00,50.3,46.9,29.93,NW,322,12.0,17.0,88,0.00,,---,0.00,VWS V14.00,2013-11-23 07:40:00,
2013-11-23 02:45:00,50.2,46.5,29.93,NW,323,13.0,17.0,87,0.00,,---,0.00,VWS V14.00,2013-11-23 07:45:00,
2013-11-23 02:50:00,50.0,46.6,29.93,NW,318,13.0,17.0,88,0.00,,---,0.00,VWS V14.00,2013-11-23 07:50:00,
2013-11-23 02:55:00,49.9,46.2,29.93,NW,314,11.0,17.0,87,0.00,,---,0.00,VWS V14.00,2013-11-23 07:55:00,
2013-11-23 03:00:00,49.7,46.0,29.93,NW,326,9.0,11.0,87,0.00,,---,0.00,VWS V14.00,2013-11-23 08:00:00,
2013-11-23 03:05:00,49.5,45.8,29.93,NW,320,12.0,14.0,87,0.00,,---,0.00,VWS V14.00,2013-11-23 08:05:00,
2013-11-23 03:10:00,49.3,45.9,29.93,NW,318,10.0,14.0,88,0.00,,---,0.00,VWS V14.00,2013-11-23 08:10:00,
2013-11-23 03:15:00,49.3,45.9,29.93,NW,326,9.0,14.0,88,0.00,,---,0.00,VWS V14.00,2013-11-23 08:15:00,
2013-11-23 03:21:00,49.1,45.7,29.93,NW,317,11.0,14.0,88,0.00,,---,0.00,VWS V14.00,2013-11-23 08:21:00,
2013-11-23 03:26:00,49.0,45.6,29.93,NW,314,9.0,14.0,88,0.00,,---,0.00,VWS V14.00,2013-11-23 08:26:00,
2013-11-23 03:31:00,48.9,45.5,29.93,NNW,330,11.0,14.0,88,0.00,,---,0.00,VWS V14.00,2013-11-23 08:31:00,
2013-11-23 03:36:00,48.9,45.2,29.94,NW,318,13.0,15.0,87,0.00,,---,0.00,VWS V14.00,2013-11-23 08:36:00,
2013-11-23 03:41:00,48.9,45.2,29.93,NNW,333,10.0,15.0,87,0.00,,---,0.00,VWS V14.00,2013-11-23 08:41:00,
2013-11-23 03:46:00,48.8,45.1,29.94,NNW,335,10.0,15.0,87,0.00,,---,0.00,VWS V14.00,2013-11-23 08:46:00,
2013-11-23 03:51:00,48.7,45.0,29.94,NW,322,9.0,15.0,87,0.00,,---,0.00,VWS V14.00,2013-11-23 08:51:00,
2013-11-23 03:56:00,48.9,44.9,29.94,NNW,327,13.0,16.0,86,0.00,,---,0.00,VWS V14.00,2013-11-23 08:56:00,
2013-11-23 04:01:00,49.1,44.8,29.93,NW,322,11.0,15.0,85,0.00,,---,0.00,VWS V14.00,2013-11-23 09:01:00,
2013-11-23 04:06:00,48.8,44.5,29.94,NW,324,12.0,15.0,85,0.00,,---,0.00,VWS V14.00,2013-11-23 09:06:00,
2013-11-23 04:11:00,48.5,43.9,29.94,NNW,337,14.0,16.0,84,0.00,,---,0.00,VWS V14.00,2013-11-23 09:11:00,
2013-11-23 04:16:00,48.6,43.7,29.94,NW,324,13.0,18.0,83,0.00,,---,0.00,VWS V14.00,2013-11-23 09:16:00,
2013-11-23 04:21:00,48.8,42.9,29.94,NNW,337,14.0,20.0,80,0.00,,---,0.00,VWS V14.00,2013-11-23 09:21:00,
2013-11-23 04:26:00,48.7,42.2,29.94,NNW,333,15.0,20.0,78,0.00,,---,0.00,VWS V14.00,2013-11-23 09:26:00,
2013-11-23 04:31:00,48.6,41.7,29.94,NW,325,12.0,18.0,77,0.00,,---,0.00,VWS V14.00,2013-11-23 09:31:00,
2013-11-23 04:36:00,48.3,41.8,29.95,NNW,331,10.0,18.0,78,0.00,,---,0.00,VWS V14.00,2013-11-23 09:36:00,
2013-11-23 04:41:00,48.2,41.3,29.95,NNW,327,11.0,18.0,77,0.00,,---,0.00,VWS V14.00,2013-11-23 09:41:00,
2013-11-23 04:47:00,47.9,41.0,29.95,NNW,328,14.0,18.0,77,0.00,,---,0.00,VWS V14.00,2013-11-23 09:47:00,
2013-11-23 04:52:00,47.8,40.6,29.96,NNW,338,14.0,18.0,76,0.00,,---,0.00,VWS V14.00,2013-11-23 09:52:00,
2013-11-23 04:57:00,47.4,39.9,29.96,NNW,338,12.0,19.0,75,0.00,,---,0.00,VWS V14.00,2013-11-23 09:57:00,
2013-11-23 05:02:00,47.2,39.7,29.96,NNW,331,18.0,19.0,75,0.00,,---,0.00,VWS V14.00,2013-11-23 10:02:00,
2013-11-23 05:07:00,47.0,39.5,29.96,NNW,333,12.0,21.0,75,0.00,,---,0.00,VWS V14.00,2013-11-23 10:07:00,
2013-11-23 05:12:00,46.8,39.3,29.96,NNW,335,16.0,21.0,75,0.00,,---,0.00,VWS V14.00,2013-11-23 10:12:00,
2013-11-23 05:17:00,46.6,39.1,29.97,NNW,331,12.0,21.0,75,0.00,,---,0.00,VWS V14.00,2013-11-23 10:17:00,
2013-11-23 05:22:00,46.4,38.6,29.97,NNW,343,15.0,21.0,74,0.00,,---,0.00,VWS V14.00,2013-11-23 10:22:00,
2013-11-23 05:27:00,46.4,38.6,29.97,NNW,335,14.0,21.0,74,0.00,,---,0.00,VWS V14.00,2013-11-23 10:27:00,
2013-11-23 05:32:00,46.3,37.8,29.97,NNW,337,15.0,21.0,72,0.00,,---,0.00,VWS V14.00,2013-11-23 10:32:00,
2013-11-23 05:37:00,46.1,37.9,29.97,NNW,328,16.0,21.0,73,0.00,,---,0.00,VWS V14.00,2013-11-23 10:37:00,
2013-11-23 05:42:00,45.8,38.0,29.98,NNW,343,13.0,21.0,74,0.00,,---,0.00,VWS V14.00,2013-11-23 10:42:00,
2013-11-23 05:47:00,45.6,37.5,29.98,NNW,345,11.0,21.0,73,0.00,,---,0.00,VWS V14.00,2013-11-23 10:47:00,
2013-11-23 05:53:00,45.4,36.6,29.98,NNW,345,14.0,21.0,71,0.00,,---,0.00,VWS V14.00,2013-11-23 10:53:00,
2013-11-23 05:58:00,45.2,35.7,29.99,North,350,20.0,23.0,69,0.00,,---,0.00,VWS V14.00,2013-11-23 10:58:00,
2013-11-23 06:03:00,45.0,35.8,29.99,NNW,333,15.0,21.0,70,0.00,,---,0.00,VWS V14.00,2013-11-23 11:03:00,
2013-11-23 06:08:00,44.7,35.2,29.99,NNW,337,15.0,22.0,69,0.00,,---,0.00,VWS V14.00,2013-11-23 11:08:00,
2013-11-23 06:13:00,44.4,34.9,29.99,NNW,334,13.0,22.0,69,0.00,,---,0.00,VWS V14.00,2013-11-23 11:13:00,
2013-11-23 06:18:00,44.2,34.7,29.99,NNW,343,15.0,22.0,69,0.00,,---,0.00,VWS V14.00,2013-11-23 11:18:00,
2013-11-23 06:23:00,44.0,34.9,29.99,North,350,15.0,22.0,70,0.00,,---,0.00,VWS V14.00,2013-11-23 11:23:00,
2013-11-23 06:28:00,43.9,34.0,29.99,North,350,13.0,22.0,68,0.00,,---,0.00,VWS V14.00,2013-11-23 11:28:00,
2013-11-23 06:33:00,43.7,33.8,29.99,North,350,16.0,17.0,68,0.00,,---,0.00,VWS V14.00,2013-11-23 11:33:00,
2013-11-23 06:38:00,43.5,34.0,29.99,NNW,340,15.0,21.0,69,0.00,,---,0.00,VWS V14.00,2013-11-23 11:38:00,
2013-11-23 06:43:00,43.4,33.6,30.00,NNW,340,15.0,21.0,68,0.00,,---,0.00,VWS V14.00,2013-11-23 11:43:00,
2013-11-23 06:48:00,43.2,32.6,30.00,North,350,15.0,21.0,66,0.00,,---,0.00,VWS V14.00,2013-11-23 11:48:00,
2013-11-23 06:53:00,43.0,33.2,30.01,NNW,340,11.0,21.0,68,0.00,,---,0.00,VWS V14.00,2013-11-23 11:53:00,
2013-11-23 06:58:00,42.7,32.5,30.01,North,355,14.0,21.0,67,0.00,,---,0.00,VWS V14.00,2013-11-23 11:58:00,
2013-11-23 07:04:00,42.6,32.8,30.01,North,350,14.0,23.0,68,0.00,,---,0.00,VWS V14.00,2013-11-23 12:04:00,
2013-11-23 07:09:00,42.4,32.2,30.02,NNW,338,15.0,23.0,67,0.00,,---,0.00,VWS V14.00,2013-11-23 12:09:00,
2013-11-23 07:14:00,42.3,31.8,30.02,North,4,17.0,23.0,66,0.00,,---,0.00,VWS V14.00,2013-11-23 12:14:00,
2013-11-23 07:19:00,42.3,32.5,30.02,NNW,337,16.0,23.0,68,0.00,,---,0.00,VWS V14.00,2013-11-23 12:19:00,
2013-11-23 07:24:00,42.1,32.3,30.02,NNW,339,12.0,23.0,68,0.00,,---,0.00,VWS V14.00,2013-11-23 12:24:00,
2013-11-23 07:29:00,41.9,31.0,30.01,NNW,339,16.0,23.0,65,0.00,,---,0.00,VWS V14.00,2013-11-23 12:29:00,
2013-11-23 07:34:00,41.8,32.0,30.02,NW,316,16.0,20.0,68,0.00,,---,0.00,VWS V14.00,2013-11-23 12:34:00,
2013-11-23 07:39:00,41.7,31.9,30.02,NW,326,18.0,23.0,68,0.00,,---,0.00,VWS V14.00,2013-11-23 12:39:00,
2013-11-23 07:44:00,41.6,31.8,30.02,NNW,328,15.0,23.0,68,0.00,,---,0.00,VWS V14.00,2013-11-23 12:44:00,
2013-11-23 07:49:00,41.6,31.5,30.02,NNW,333,16.0,23.0,67,0.00,,---,0.00,VWS V14.00,2013-11-23 12:49:00,
2013-11-23 07:54:00,41.6,31.5,30.02,NW,326,15.0,23.0,67,0.00,,---,0.00,VWS V14.00,2013-11-23 12:54:00,
2013-11-23 07:59:00,41.5,31.7,30.02,North,350,15.0,23.0,68,0.00,,---,0.00,VWS V14.00,2013-11-23 12:59:00,
2013-11-23 08:04:00,41.4,31.3,30.02,NNW,333,17.0,23.0,67,0.00,,---,0.00,VWS V14.00,2013-11-23 13:04:00,
2013-11-23 08:09:00,41.4,31.3,30.02,NNW,335,19.0,23.0,67,0.00,,---,0.00,VWS V14.00,2013-11-23 13:09:00,
2013-11-23 08:15:00,41.3,31.2,30.01,NNW,333,16.0,24.0,67,0.00,,---,0.00,VWS V14.00,2013-11-23 13:15:00,
2013-11-23 08:20:00,41.4,32.0,30.02,North,355,17.0,24.0,69,0.00,,---,0.00,VWS V14.00,2013-11-23 13:20:00,
2013-11-23 08:25:00,41.3,31.5,30.01,NNW,338,19.0,24.0,68,0.00,,---,0.00,VWS V14.00,2013-11-23 13:25:00,
2013-11-23 08:30:00,41.4,31.6,30.01,North,355,22.0,22.0,68,0.00,,---,0.00,VWS V14.00,2013-11-23 13:30:00,
2013-11-23 08:35:00,41.4,31.6,30.01,NNW,341,15.0,22.0,68,0.00,,---,0.00,VWS V14.00,2013-11-23 13:35:00,
2013-11-23 08:40:00,41.3,31.2,30.01,NNW,338,20.0,23.0,67,0.00,,---,0.00,VWS V14.00,2013-11-23 13:40:00,
2013-11-23 08:45:00,41.3,30.8,30.01,North,355,16.0,23.0,66,0.00,,---,0.00,VWS V14.00,2013-11-23 13:45:00,
2013-11-23 08:50:00,41.4,30.5,30.01,NNW,345,16.0,23.0,65,0.00,,---,0.00,VWS V14.00,2013-11-23 13:50:00,
2013-11-23 08:55:00,41.3,30.4,30.01,NNW,346,17.0,24.0,65,0.00,,---,0.00,VWS V14.00,2013-11-23 13:55:00,
2013-11-23 09:00:00,41.5,30.2,30.01,NNW,345,16.0,18.0,64,0.00,,---,0.00,VWS V14.00,2013-11-23 14:00:00,
2013-11-23 09:05:00,41.6,30.7,30.01,NNW,328,17.0,20.0,65,0.00,,---,0.00,VWS V14.00,2013-11-23 14:05:00,
2013-11-23 09:10:00,41.6,30.3,30.02,NNW,331,18.0,21.0,64,0.00,,---,0.00,VWS V14.00,2013-11-23 14:10:00,
2013-11-23 09:15:00,41.8,30.5,30.01,NNW,344,17.0,21.0,64,0.00,,---,0.00,VWS V14.00,2013-11-23 14:15:00,
2013-11-23 09:20:00,41.8,30.1,30.02,NNW,339,17.0,21.0,63,0.00,,---,0.00,VWS V14.00,2013-11-23 14:20:00,
2013-11-23 09:25:00,42.0,30.3,30.02,NNW,343,18.0,21.0,63,0.00,,---,0.00,VWS V14.00,2013-11-23 14:25:00,
2013-11-23 09:31:00,42.1,30.0,30.02,North,350,14.0,17.0,62,0.00,,---,0.00,VWS V14.00,2013-11-23 14:31:00,
2013-11-23 09:36:00,42.2,31.3,30.02,North,350,14.0,19.0,65,0.00,,---,0.00,VWS V14.00,2013-11-23 14:36:00,
2013-11-23 09:41:00,42.3,31.0,30.02,NNW,345,13.0,19.0,64,0.00,,---,0.00,VWS V14.00,2013-11-23 14:41:00,
2013-11-23 09:46:00,42.3,30.2,30.02,NW,326,15.0,19.0,62,0.00,,---,0.00,VWS V14.00,2013-11-23 14:46:00,
2013-11-23 09:51:00,42.4,31.1,30.01,NW,326,14.0,19.0,64,0.00,,---,0.00,VWS V14.00,2013-11-23 14:51:00,
2013-11-23 09:56:00,42.5,29.6,30.01,NW,322,13.0,19.0,60,0.00,,---,0.00,VWS V14.00,2013-11-23 14:56:00,
2013-11-23 10:01:00,42.7,30.2,30.01,North,350,17.0,17.0,61,0.00,,---,0.00,VWS V14.00,2013-11-23 15:01:00,
2013-11-23 10:06:00,43.0,30.9,30.01,NNW,328,15.0,18.0,62,0.00,,---,0.00,VWS V14.00,2013-11-23 15:06:00,
2013-11-23 10:11:00,43.1,30.2,30.01,NNW,333,13.0,18.0,60,0.00,,---,0.00,VWS V14.00,2013-11-23 15:11:00,
2013-11-23 10:16:00,43.2,30.3,30.01,NW,326,17.0,18.0,60,0.00,,---,0.00,VWS V14.00,2013-11-23 15:16:00,
2013-11-23 10:21:00,43.3,29.1,30.01,NNW,332,13.0,19.0,57,0.00,,---,0.00,VWS V14.00,2013-11-23 15:21:00,
2013-11-23 10:26:00,43.7,29.5,30.01,NNW,337,16.0,19.0,57,0.00,,---,0.00,VWS V14.00,2013-11-23 15:26:00,
2013-11-23 10:31:00,43.9,29.2,30.00,NNW,334,18.0,20.0,56,0.00,,---,0.00,VWS V14.00,2013-11-23 15:31:00,
2013-11-23 10:36:00,43.9,27.9,30.00,NNW,337,14.0,20.0,53,0.00,,---,0.00,VWS V14.00,2013-11-23 15:36:00,
2013-11-23 10:41:00,44.2,28.2,30.00,NNW,337,17.0,20.0,53,0.00,,---,0.00,VWS V14.00,2013-11-23 15:41:00,
2013-11-23 10:46:00,44.7,29.1,30.00,NNW,343,14.0,20.0,54,0.00,,---,0.00,VWS V14.00,2013-11-23 15:46:00,
2013-11-23 10:51:00,44.5,28.5,29.99,NW,326,14.0,20.0,53,0.00,,---,0.00,VWS V14.00,2013-11-23 15:51:00,
2013-11-23 10:57:00,44.5,27.5,29.99,NNW,345,15.0,20.0,51,0.00,,---,0.00,VWS V14.00,2013-11-23 15:57:00,
2013-11-23 11:02:00,44.5,29.8,29.99,NNW,344,15.0,18.0,56,0.00,,---,0.00,VWS V14.00,2013-11-23 16:02:00,
2013-11-23 11:07:00,44.3,28.3,29.99,NNW,329,16.0,19.0,53,0.00,,---,0.00,VWS V14.00,2013-11-23 16:07:00,
2013-11-23 11:12:00,44.2,28.6,29.99,NNW,341,17.0,19.0,54,0.00,,---,0.00,VWS V14.00,2013-11-23 16:12:00,
2013-11-23 11:17:00,44.0,29.8,29.99,NW,324,16.0,20.0,57,0.00,,---,0.00,VWS V14.00,2013-11-23 16:17:00,
2013-11-23 11:22:00,43.8,28.7,29.99,NNW,331,16.0,20.0,55,0.00,,---,0.00,VWS V14.00,2013-11-23 16:22:00,
2013-11-23 11:27:00,43.9,27.4,29.98,NNW,339,15.0,20.0,52,0.00,,---,0.00,VWS V14.00,2013-11-23 16:27:00,
2013-11-23 11:32:00,44.1,30.7,29.99,NW,321,10.0,17.0,59,0.00,,---,0.00,VWS V14.00,2013-11-23 16:32:00,
2013-11-23 11:37:00,44.2,29.1,29.99,WNW,302,14.0,17.0,55,0.00,,---,0.00,VWS V14.00,2013-11-23 16:37:00,
2013-11-23 11:42:00,44.1,29.9,29.98,NW,314,12.0,18.0,57,0.00,,---,0.00,VWS V14.00,2013-11-23 16:42:00,
2013-11-23 11:47:00,44.0,31.0,29.98,NW,310,14.0,23.0,60,0.00,,---,0.00,VWS V14.00,2013-11-23 16:47:00,
2013-11-23 11:52:00,44.3,30.5,29.97,NW,320,14.0,23.0,58,0.00,,---,0.00,VWS V14.00,2013-11-23 16:52:00,
2013-11-23 11:57:00,44.4,29.3,29.97,NW,322,14.0,23.0,55,0.00,,---,0.00,VWS V14.00,2013-11-23 16:57:00,
2013-11-23 12:02:00,44.6,31.2,29.96,NW,326,16.0,18.0,59,0.00,,---,0.00,VWS V14.00,2013-11-23 17:02:00,
2013-11-23 12:07:00,44.6,29.0,29.96,NNW,328,12.0,20.0,54,0.00,,---,0.00,VWS V14.00,2013-11-23 17:07:00,
2013-11-23 12:12:00,44.8,27.3,29.96,NW,320,16.0,20.0,50,0.00,,---,0.00,VWS V14.00,2013-11-23 17:12:00,
2013-11-23 12:17:00,45.0,29.4,29.96,NW,317,18.0,20.0,54,0.00,,---,0.00,VWS V14.00,2013-11-23 17:17:00,
2013-11-23 12:22:00,45.1,27.6,29.96,NNW,337,15.0,20.0,50,0.00,,---,0.00,VWS V14.00,2013-11-23 17:22:00,
2013-11-23 12:28:00,45.3,29.2,29.96,NNW,335,14.0,20.0,53,0.00,,---,0.00,VWS V14.00,2013-11-23 17:28:00,
2013-11-23 12:33:00,45.4,28.4,29.96,NW,320,17.0,18.0,51,0.00,,---,0.00,VWS V14.00,2013-11-23 17:33:00,
2013-11-23 12:38:00,45.4,28.4,29.95,NNW,331,19.0,21.0,51,0.00,,---,0.00,VWS V14.00,2013-11-23 17:38:00,
2013-11-23 12:43:00,45.4,28.8,29.95,NNW,328,18.0,22.0,52,0.00,,---,0.00,VWS V14.00,2013-11-23 17:43:00,
2013-11-23 12:48:00,45.4,26.4,29.95,NW,318,16.0,22.0,47,0.00,,---,0.00,VWS V14.00,2013-11-23 17:48:00,
2013-11-23 12:53:00,45.2,29.6,29.95,NW,318,18.0,22.0,54,0.00,,---,0.00,VWS V14.00,2013-11-23 17:53:00,
2013-11-23 12:58:00,44.8,27.3,29.94,NNW,335,17.0,23.0,50,0.00,,---,0.00,VWS V14.00,2013-11-23 17:58:00,
2013-11-23 13:03:00,44.6,26.6,29.95,NNW,337,16.0,24.0,49,0.00,,---,0.00,VWS V14.00,2013-11-23 18:03:00,
2013-11-23 13:08:00,44.5,27.5,29.95,NW,318,17.0,24.0,51,0.00,,---,0.00,VWS V14.00,2013-11-23 18:08:00,
2013-11-23 13:13:00,44.6,27.6,29.95,NW,322,15.0,24.0,51,0.00,,---,0.00,VWS V14.00,2013-11-23 18:13:00,
2013-11-23 13:18:00,44.7,28.2,29.95,NW,317,15.0,24.0,52,0.00,,---,0.00,VWS V14.00,2013-11-23 18:18:00,
2013-11-23 13:23:00,44.6,28.1,29.94,NW,313,19.0,24.0,52,0.00,,---,0.00,VWS V14.00,2013-11-23 18:23:00,
2013-11-23 13:29:00,44.5,29.4,29.94,NW,308,13.0,24.0,55,0.00,,---,0.00,VWS V14.00,2013-11-23 18:29:00,
2013-11-23 13:34:00,44.5,28.9,29.94,NW,307,15.0,17.0,54,0.00,,---,0.00,VWS V14.00,2013-11-23 18:34:00,
2013-11-23 13:39:00,44.5,28.9,29.94,NW,304,13.0,17.0,54,0.00,,---,0.00,VWS V14.00,2013-11-23 18:39:00,
2013-11-23 13:44:00,44.4,28.8,29.94,WNW,303,18.0,18.0,54,0.00,,---,0.00,VWS V14.00,2013-11-23 18:44:00,
2013-11-23 13:49:00,44.3,28.3,29.94,NW,306,19.0,20.0,53,0.00,,---,0.00,VWS V14.00,2013-11-23 18:49:00,
2013-11-23 13:54:00,44.3,28.7,29.94,NW,309,19.0,20.0,54,0.00,,---,0.00,VWS V14.00,2013-11-23 18:54:00,
2013-11-23 13:59:00,44.3,27.3,29.94,NW,312,16.0,21.0,51,0.00,,---,0.00,VWS V14.00,2013-11-23 18:59:00,
2013-11-23 14:04:00,44.4,27.4,29.94,NW,324,16.0,20.0,51,0.00,,---,0.00,VWS V14.00,2013-11-23 19:04:00,
2013-11-23 14:09:00,44.3,28.7,29.94,NW,318,15.0,20.0,54,0.00,,---,0.00,VWS V14.00,2013-11-23 19:09:00,
2013-11-23 14:15:00,44.3,29.6,29.93,WNW,299,14.0,21.0,56,0.00,,---,0.00,VWS V14.00,2013-11-23 19:15:00,
2013-11-23 14:20:00,44.2,27.7,29.93,NW,310,18.0,21.0,52,0.00,,---,0.00,VWS V14.00,2013-11-23 19:20:00,
2013-11-23 14:25:00,44.2,27.7,29.93,NW,314,18.0,21.0,52,0.00,,---,0.00,VWS V14.00,2013-11-23 19:25:00,
2013-11-23 14:30:00,44.3,29.2,29.93,NW,323,16.0,17.0,55,0.00,,---,0.00,VWS V14.00,2013-11-23 19:30:00,
2013-11-23 14:35:00,44.3,28.3,29.93,NW,312,15.0,19.0,53,0.00,,---,0.00,VWS V14.00,2013-11-23 19:35:00,
2013-11-23 14:40:00,44.6,29.0,29.93,NW,314,17.0,22.0,54,0.00,,---,0.00,VWS V14.00,2013-11-23 19:40:00,
2013-11-23 14:45:00,44.4,27.9,29.93,NW,317,15.0,22.0,52,0.00,,---,0.00,VWS V14.00,2013-11-23 19:45:00,
2013-11-23 14:50:00,44.3,29.2,29.93,NW,307,15.0,22.0,55,0.00,,---,0.00,VWS V14.00,2013-11-23 19:50:00,
2013-11-23 14:55:00,44.3,27.3,29.93,WNW,300,18.0,22.0,51,0.00,,---,0.00,VWS V14.00,2013-11-23 19:55:00,
2013-11-23 15:00:00,44.6,26.1,29.93,NW,314,13.0,17.0,48,0.00,,---,0.00,VWS V14.00,2013-11-23 20:00:00,
2013-11-23 15:05:00,44.5,28.0,29.94,WNW,303,17.0,20.0,52,0.00,,---,0.00,VWS V14.00,2013-11-23 20:05:00,
2013-11-23 15:10:00,44.5,28.0,29.94,NW,318,15.0,20.0,52,0.00,,---,0.00,VWS V14.00,2013-11-23 20:10:00,
2013-11-23 15:15:00,44.2,28.2,29.94,WNW,299,16.0,20.0,53,0.00,,---,0.00,VWS V14.00,2013-11-23 20:15:00,
2013-11-23 15:21:00,44.2,28.6,29.94,WNW,299,15.0,20.0,54,0.00,,---,0.00,VWS V14.00,2013-11-23 20:21:00,
2013-11-23 15:26:00,44.2,27.2,29.94,NW,307,15.0,20.0,51,0.00,,---,0.00,VWS V14.00,2013-11-23 20:26:00,
2013-11-23 15:31:00,44.2,27.2,29.94,NW,312,16.0,18.0,51,0.00,,---,0.00,VWS V14.00,2013-11-23 20:31:00,
2013-11-23 15:36:00,44.2,29.1,29.94,NW,316,15.0,20.0,55,0.00,,---,0.00,VWS V14.00,2013-11-23 20:36:00,
2013-11-23 15:41:00,44.2,27.7,29.94,NW,314,16.0,20.0,52,0.00,,---,0.00,VWS V14.00,2013-11-23 20:41:00,
2013-11-23 15:46:00,44.2,28.2,29.94,WNW,303,16.0,20.0,53,0.00,,---,0.00,VWS V14.00,2013-11-23 20:46:00,
2013-11-23 15:51:00,44.0,27.0,29.93,NW,308,20.0,21.0,51,0.00,,---,0.00,VWS V14.00,2013-11-23 20:51:00,
2013-11-23 15:56:00,43.9,26.5,29.93,NW,317,17.0,21.0,50,0.00,,---,0.00,VWS V14.00,2013-11-23 20:56:00,
2013-11-23 16:01:00,43.8,27.8,29.93,WNW,301,16.0,18.0,53,0.00,,---,0.00,VWS V14.00,2013-11-23 21:01:00,
2013-11-23 16:06:00,43.8,26.4,29.94,NW,308,16.0,18.0,50,0.00,,---,0.00,VWS V14.00,2013-11-23 21:06:00,
2013-11-23 16:11:00,43.7,25.8,29.94,NW,313,13.0,18.0,49,0.00,,---,0.00,VWS V14.00,2013-11-23 21:11:00,
2013-11-23 16:16:00,43.6,26.7,29.93,NW,308,14.0,18.0,51,0.00,,---,0.00,VWS V14.00,2013-11-23 21:16:00,
2013-11-23 16:21:00,43.6,29.4,29.94,WNW,301,12.0,18.0,57,0.00,,---,0.00,VWS V14.00,2013-11-23 21:21:00,
2013-11-23 16:26:00,43.5,25.6,29.94,NW,313,15.0,18.0,49,0.00,,---,0.00,VWS V14.00,2013-11-23 21:26:00,
2013-11-23 16:31:00,43.5,27.5,29.94,WNW,294,13.0,15.0,53,0.00,,---,0.00,VWS V14.00,2013-11-23 21:31:00,
2013-11-23 16:36:00,43.4,27.9,29.94,NW,310,12.0,15.0,54,0.00,,---,0.00,VWS V14.00,2013-11-23 21:36:00,
2013-11-23 16:41:00,43.3,27.3,29.94,NW,310,12.0,15.0,53,0.00,,---,0.00,VWS V14.00,2013-11-23 21:41:00,
2013-11-23 16:46:00,43.2,27.2,29.94,WNW,291,10.0,15.0,53,0.00,,---,0.00,VWS V14.00,2013-11-23 21:46:00,
2013-11-23 16:52:00,43.1,29.3,29.94,WNW,297,10.0,15.0,58,0.00,,---,0.00,VWS V14.00,2013-11-23 21:52:00,
2013-11-23 16:57:00,43.2,29.4,29.95,WNW,288,12.0,15.0,58,0.00,,---,0.00,VWS V14.00,2013-11-23 21:57:00,
2013-11-23 17:02:00,43.0,27.5,29.95,West,279,9.0,11.0,54,0.00,,---,0.00,VWS V14.00,2013-11-23 22:02:00,
2013-11-23 17:07:00,42.7,27.2,29.95,West,280,10.0,15.0,54,0.00,,---,0.00,VWS V14.00,2013-11-23 22:07:00,
2013-11-23 17:12:00,42.6,28.0,29.95,West,271,13.0,15.0,56,0.00,,---,0.00,VWS V14.00,2013-11-23 22:12:00,
2013-11-23 17:17:00,42.5,27.0,29.95,West,281,10.0,15.0,54,0.00,,---,0.00,VWS V14.00,2013-11-23 22:17:00,
2013-11-23 17:22:00,42.5,26.1,29.95,West,263,12.0,15.0,52,0.00,,---,0.00,VWS V14.00,2013-11-23 22:22:00,
2013-11-23 17:27:00,42.5,27.0,29.95,West,274,10.0,15.0,54,0.00,,---,0.00,VWS V14.00,2013-11-23 22:27:00,
2013-11-23 17:32:00,42.4,27.4,29.95,West,275,9.0,14.0,55,0.00,,---,0.00,VWS V14.00,2013-11-23 22:32:00,
2013-11-23 17:37:00,42.3,26.4,29.95,West,274,12.0,16.0,53,0.00,,---,0.00,VWS V14.00,2013-11-23 22:37:00,
2013-11-23 17:42:00,42.3,26.4,29.95,West,279,10.0,16.0,53,0.00,,---,0.00,VWS V14.00,2013-11-23 22:42:00,
2013-11-23 17:47:00,42.2,26.8,29.95,WNW,296,11.0,16.0,54,0.00,,---,0.00,VWS V14.00,2013-11-23 22:47:00,
2013-11-23 17:52:00,42.1,26.7,29.95,WNW,285,9.0,16.0,54,0.00,,---,0.00,VWS V14.00,2013-11-23 22:52:00,
2013-11-23 17:57:00,42.1,26.7,29.95,West,280,10.0,16.0,54,0.00,,---,0.00,VWS V14.00,2013-11-23 22:57:00,
2013-11-23 18:02:00,42.0,26.1,29.95,West,278,11.0,14.0,53,0.00,,---,0.00,VWS V14.00,2013-11-23 23:02:00,
2013-11-23 18:08:00,41.9,26.5,29.94,West,262,9.0,14.0,54,0.00,,---,0.00,VWS V14.00,2013-11-23 23:08:00,
2013-11-23 18:09:00,41.9,26.5,29.95,West,279,12.0,14.0,54,0.00,,---,0.00,VWS V14.00,2013-11-23 23:09:00,
2013-11-23 18:14:00,41.9,26.5,29.94,West,281,13.0,17.0,54,0.00,,---,0.00,VWS V14.00,2013-11-23 23:14:00,
2013-11-23 18:19:00,41.8,25.9,29.95,WNW,284,14.0,17.0,53,0.00,,---,0.00,VWS V14.00,2013-11-23 23:19:00,
2013-11-23 18:24:00,41.7,25.9,29.95,West,272,12.0,17.0,53,0.00,,---,0.00,VWS V14.00,2013-11-23 23:24:00,
2013-11-23 18:29:00,41.6,27.5,29.95,West,274,9.0,17.0,57,0.00,,---,0.00,VWS V14.00,2013-11-23 23:29:00,
2013-11-23 18:34:00,41.5,27.4,29.94,West,265,12.0,12.0,57,0.00,,---,0.00,VWS V14.00,2013-11-23 23:34:00,
2013-11-23 18:39:00,41.4,27.3,29.95,West,272,6.0,12.0,57,0.00,,---,0.00,VWS V14.00,2013-11-23 23:39:00,
2013-11-23 18:44:00,41.3,27.2,29.95,West,262,7.0,12.0,57,0.00,,---,0.00,VWS V14.00,2013-11-23 23:44:00,
2013-11-23 18:49:00,41.2,27.1,29.95,WNW,285,12.0,16.0,57,0.00,,---,0.00,VWS V14.00,2013-11-23 23:49:00,
2013-11-23 18:54:00,41.4,27.3,29.94,WNW,295,16.0,17.0,57,0.00,,---,0.00,VWS V14.00,2013-11-23 23:54:00,
2013-11-23 18:59:00,41.7,26.7,29.94,WNW,291,16.0,21.0,55,0.00,,---,0.00,VWS V14.00,2013-11-23 23:59:00,
2013-11-23 19:04:00,41.7,25.9,29.95,WNW,290,16.0,23.0,53,0.00,,---,0.00,VWS V14.00,2013-11-24 00:04:00,
2013-11-23 19:09:00,41.7,28.0,29.95,WNW,291,12.0,23.0,58,0.00,,---,0.00,VWS V14.00,2013-11-24 00:09:00,
2013-11-23 19:14:00,41.7,28.4,29.95,WNW,292,15.0,23.0,59,0.00,,---,0.00,VWS V14.00,2013-11-24 00:14:00,
2013-11-23 19:19:00,41.6,26.2,29.95,WNW,302,12.0,23.0,54,0.00,,---,0.00,VWS V14.00,2013-11-24 00:19:00,
2013-11-23 19:25:00,41.7,25.4,29.95,WNW,300,14.0,23.0,52,0.00,,---,0.00,VWS V14.00,2013-11-24 00:25:00,
2013-11-23 19:30:00,41.7,26.7,29.95,WNW,300,14.0,16.0,55,0.00,,---,0.00,VWS V14.00,2013-11-24 00:30:00,
2013-11-23 19:35:00,41.8,27.7,29.95,NW,304,17.0,19.0,57,0.00,,---,0.00,VWS V14.00,2013-11-24 00:35:00,
2013-11-23 19:40:00,41.8,26.8,29.95,WNW,297,19.0,20.0,55,0.00,,---,0.00,VWS V14.00,2013-11-24 00:40:00,
2013-11-23 19:45:00,41.8,25.9,29.95,WNW,295,17.0,23.0,53,0.00,,---,0.00,VWS V14.00,2013-11-24 00:45:00,
2013-11-23 19:50:00,41.9,24.1,29.95,NW,308,25.0,26.0,49,0.00,,---,0.00,VWS V14.00,2013-11-24 00:50:00,
2013-11-23 19:55:00,42.0,27.9,29.94,WNW,291,25.0,26.0,57,0.00,,---,0.00,VWS V14.00,2013-11-24 00:55:00,
2013-11-23 20:00:00,42.0,25.2,29.95,WNW,299,19.0,21.0,51,0.00,,---,0.00,VWS V14.00,2013-11-24 01:00:00,
2013-11-23 20:05:00,42.0,25.7,29.95,NW,307,17.0,26.0,52,0.00,,---,0.00,VWS V14.00,2013-11-24 01:05:00,
2013-11-23 20:10:00,41.9,24.6,29.95,NW,304,21.0,26.0,50,0.00,,---,0.00,VWS V14.00,2013-11-24 01:10:00,
2013-11-23 20:15:00,41.9,25.6,29.95,WNW,295,18.0,26.0,52,0.00,,---,0.00,VWS V14.00,2013-11-24 01:15:00,
2013-11-23 20:20:00,41.8,25.5,29.95,WNW,303,17.0,26.0,52,0.00,,---,0.00,VWS V14.00,2013-11-24 01:20:00,
2013-11-23 20:25:00,41.7,25.4,29.95,NW,316,14.0,26.0,52,0.00,,---,0.00,VWS V14.00,2013-11-24 01:25:00,
2013-11-23 20:30:00,41.6,26.2,29.95,NW,309,17.0,20.0,54,0.00,,---,0.00,VWS V14.00,2013-11-24 01:30:00,
2013-11-23 20:35:00,41.1,25.7,29.95,NW,326,28.0,33.0,54,0.00,,---,0.00,VWS V14.00,2013-11-24 01:35:00,
2013-11-23 20:40:00,40.8,25.9,29.96,NNW,327,19.0,33.0,55,0.00,,---,0.00,VWS V14.00,2013-11-24 01:40:00,
2013-11-23 20:45:00,40.5,25.2,29.96,NNW,328,26.0,33.0,54,0.00,,---,0.00,VWS V14.00,2013-11-24 01:45:00,
2013-11-23 20:51:00,40.2,24.5,29.96,NW,320,27.0,33.0,53,0.00,,---,0.00,VWS V14.00,2013-11-24 01:51:00,
2013-11-23 20:56:00,40.1,27.8,29.96,NNW,332,16.0,33.0,61,0.00,,---,0.00,VWS V14.00,2013-11-24 01:56:00,
2013-11-23 21:01:00,40.0,25.6,29.96,NW,309,22.0,28.0,56,0.00,,---,0.00,VWS V14.00,2013-11-24 02:01:00,
2013-11-23 21:06:00,39.9,26.8,29.96,NW,309,22.0,29.0,59,0.00,,---,0.00,VWS V14.00,2013-11-24 02:06:00,
2013-11-23 21:11:00,40.0,27.2,29.96,NW,305,20.0,29.0,60,0.00,,---,0.00,VWS V14.00,2013-11-24 02:11:00,
2013-11-23 21:16:00,39.7,25.3,29.96,WNW,299,21.0,29.0,56,0.00,,---,0.00,VWS V14.00,2013-11-24 02:16:00,
2013-11-23 21:21:00,39.6,25.6,29.97,NW,318,17.0,29.0,57,0.00,,---,0.00,VWS V14.00,2013-11-24 02:21:00,
2013-11-23 21:26:00,39.6,24.8,29.97,NW,308,20.0,29.0,55,0.00,,---,0.00,VWS V14.00,2013-11-24 02:26:00,
2013-11-23 21:31:00,39.4,25.0,29.97,NW,323,20.0,23.0,56,0.00,,---,0.00,VWS V14.00,2013-11-24 02:31:00,
2013-11-23 21:36:00,39.2,23.5,29.97,NW,320,20.0,27.0,53,0.00,,---,0.00,VWS V14.00,2013-11-24 02:36:00,
2013-11-23 21:41:00,39.1,23.4,29.97,NW,316,19.0,29.0,53,0.00,,---,0.00,VWS V14.00,2013-11-24 02:41:00,
2013-11-23 21:46:00,38.9,25.4,29.97,NW,315,19.0,29.0,58,0.00,,---,0.00,VWS V14.00,2013-11-24 02:46:00,
2013-11-23 21:51:00,38.8,24.5,29.97,NNW,337,19.0,29.0,56,0.00,,---,0.00,VWS V14.00,2013-11-24 02:51:00,
2013-11-23 21:56:00,38.6,24.3,29.98,NW,318,22.0,29.0,56,0.00,,---,0.00,VWS V14.00,2013-11-24 02:56:00,
2013-11-23 22:01:00,38.4,24.9,29.98,NW,315,19.0,24.0,58,0.00,,---,0.00,VWS V14.00,2013-11-24 03:01:00,
2013-11-23 22:07:00,38.4,24.5,29.98,NW,322,15.0,25.0,57,0.00,,---,0.00,VWS V14.00,2013-11-24 03:07:00,
2013-11-23 22:12:00,38.0,26.1,29.99,North,350,25.0,27.0,62,0.00,,---,0.00,VWS V14.00,2013-11-24 03:12:00,
2013-11-23 22:17:00,37.0,26.0,29.99,North,350,24.0,27.0,64,0.00,,---,0.00,VWS V14.00,2013-11-24 03:17:00,
2013-11-23 22:22:00,36.3,25.7,30.00,North,350,19.0,27.0,65,0.00,,---,0.00,VWS V14.00,2013-11-24 03:22:00,
2013-11-23 22:27:00,36.0,25.0,30.00,NNW,342,22.0,32.0,64,0.00,,---,0.00,VWS V14.00,2013-11-24 03:27:00,
2013-11-23 22:32:00,35.7,25.5,30.00,North,355,20.0,23.0,66,0.00,,---,0.00,VWS V14.00,2013-11-24 03:32:00,
2013-11-23 22:37:00,35.5,24.9,30.00,NW,323,18.0,23.0,65,0.00,,---,0.00,VWS V14.00,2013-11-24 03:37:00,
2013-11-23 22:42:00,35.4,25.2,30.00,NNW,341,17.0,26.0,66,0.00,,---,0.00,VWS V14.00,2013-11-24 03:42:00,
2013-11-23 22:47:00,35.2,24.3,30.00,NW,326,15.0,26.0,64,0.00,,---,0.00,VWS V14.00,2013-11-24 03:47:00,
2013-11-23 22:52:00,35.4,25.5,30.00,NW,319,17.0,26.0,67,0.00,,---,0.00,VWS V14.00,2013-11-24 03:52:00,
2013-11-23 22:57:00,35.4,25.5,30.00,NNW,335,20.0,26.0,67,0.00,,---,0.00,VWS V14.00,2013-11-24 03:57:00,
2013-11-23 23:02:00,35.3,25.1,30.00,NW,324,16.0,21.0,66,0.00,,---,0.00,VWS V14.00,2013-11-24 04:02:00,
2013-11-23 23:07:00,35.1,24.5,29.99,NNW,332,15.0,22.0,65,0.00,,---,0.00,VWS V14.00,2013-11-24 04:07:00,
2013-11-23 23:12:00,35.0,24.4,29.99,NW,326,19.0,23.0,65,0.00,,---,0.00,VWS V14.00,2013-11-24 04:12:00,
2013-11-23 23:17:00,35.1,25.3,29.99,NW,316,24.0,30.0,67,0.00,,---,0.00,VWS V14.00,2013-11-24 04:17:00,
2013-11-23 23:22:00,35.0,25.2,29.99,NNW,335,24.0,30.0,67,0.00,,---,0.00,VWS V14.00,2013-11-24 04:22:00,
2013-11-23 23:28:00,34.8,24.2,29.99,NW,318,20.0,30.0,65,0.00,,---,0.00,VWS V14.00,2013-11-24 04:28:00,
2013-11-23 23:33:00,34.8,25.3,29.99,NNW,336,18.0,28.0,68,0.00,,---,0.00,VWS V14.00,2013-11-24 04:33:00,
2013-11-23 23:38:00,34.7,25.6,30.00,NW,322,20.0,28.0,69,0.00,,---,0.00,VWS V14.00,2013-11-24 04:38:00,
2013-11-23 23:43:00,34.5,24.7,30.00,NNW,331,17.0,28.0,67,0.00,,---,0.00,VWS V14.00,2013-11-24 04:43:00,
2013-11-23 23:48:00,34.6,25.5,29.99,NNW,333,19.0,28.0,69,0.00,,---,0.00,VWS V14.00,2013-11-24 04:48:00,
2013-11-23 23:53:00,34.6,25.5,30.00,NW,326,25.0,28.0,69,0.00,,---,0.00,VWS V14.00,2013-11-24 04:53:00,
2013-11-23 23:58:00,34.1,26.0,30.00,NNW,328,32.0,36.0,72,0.00,,---,0.00,VWS V14.00,2013-11-24 04:58:00,